This is the latest recevied weather packets stored in our database for station/object VK3HAG. If no packets are shown the sender has not sent any weather packets the latest 10 day(s).
| Time | Temp. | Humidity | Pressure | Rain* | Wind** | Luminosity | Snow |
|---|---|---|---|---|---|---|---|
| 1777711504 | 22.78° C | 50% | 1013 hPa | 0 mm | - | - | - |
| 1777710605 | 22.78° C | 50% | 1013 hPa | 0 mm | - | - | - |
| 1777709705 | 22.78° C | 49% | 1013 hPa | 0 mm | - | - | - |
| 1777708805 | 22.78° C | 50% | 1013 hPa | 0 mm | - | - | - |
| 1777707905 | 23.33° C | 50% | 1012.9 hPa | 0 mm | - | - | - |
| 1777707005 | 23.33° C | 50% | 1012.9 hPa | 0 mm | - | - | - |
| 1777706104 | 23.33° C | 50% | 1012.9 hPa | 0 mm | - | - | - |
| 1777705205 | 23.33° C | 50% | 1012.9 hPa | 0 mm | - | - | - |
| 1777704304 | 23.89° C | 49% | 1012.9 hPa | 0 mm | - | - | - |
| 1777703404 | 24.44° C | 50% | 1012.9 hPa | 0 mm | - | - | - |
| 1777702505 | 24.44° C | 50% | 1012.8 hPa | 0 mm | - | - | - |
| 1777701605 | 24.44° C | 49% | 1012.8 hPa | 0 mm | - | - | - |
| 1777700705 | 25° C | 47% | 1013.1 hPa | 0 mm | - | - | - |
| 1777699804 | 24.44° C | 49% | 1013.1 hPa | 0 mm | - | - | - |
| 1777698904 | 23.89° C | 49% | 1013.3 hPa | 0 mm | - | - | - |
| 1777698004 | 23.89° C | 49% | 1013.3 hPa | 0 mm | - | - | - |
| 1777697104 | 23.89° C | 49% | 1013.5 hPa | 0 mm | - | - | - |
| 1777696205 | 23.89° C | 51% | 1013.6 hPa | 0 mm | - | - | - |
| 1777695305 | 23.89° C | 51% | 1013.9 hPa | 0 mm | - | - | - |
| 1777694404 | 23.33° C | 53% | 1014.1 hPa | 0 mm | - | - | - |
| 1777693504 | 23.33° C | 53% | 1014.2 hPa | 0 mm | - | - | - |
| 1777692604 | 23.33° C | 53% | 1014.4 hPa | 0 mm | - | - | - |
| 1777691704 | 23.33° C | 53% | 1014.6 hPa | 0 mm | - | - | - |
| 1777690805 | 23.33° C | 55% | 1014.8 hPa | 0 mm | - | - | - |
| 1777689905 | 22.78° C | 57% | 1015.2 hPa | 0 mm | - | - | - |
* Rain latest hour (hover to see other rain measurements)
** Current wind speed in m/s (hover to see current wind gust speed)